Dewpoint
69 70 70 70 71 72 72 71 71 72 71 71 71 71 71 71 70 70 70 70 70 70 70 70 70 68 70 69 69 69 69 69 69 69 69 68 67 67 68 68 68 68 67 68 69 69 69 68 69 69 69 67 67 68 63 62 62 61 61 60 60 59
69 70 70 70 69 70 71 69 69 69 70 72 71 70 71 70 70 70 70 70 70 70 68 69 69 69 69 70 69 68 69 68 69 68 68 67 67 67 67 67 66 66 67 68 69 68 68 68 69 69 68 69 67 64 64 63 62 60 60 60 61 62
70 69 69 69 70 70 68 67 67 67 69 70 70 70 69 70 69 69 70 68 72 72 70 68 69 68 68 68 69 69 69 69 68 67 67 67 67 68 68 67 66 65 65 65 66 65 66 66 67 69 69 67 63 62 64 63 61 61 60 61 59 63
70 69 69 69 69 69 65 66 66 69 70 71 71 69 68 69 67 69 69 72 74 71 71 72 69 69 68 69 69 69 68 67 67 67 67 66 68 68 67 66 64 64 64 63 63 65 63 66 67 67 67 65 63 64 63 62 57 61 62 60 60 64
70 70 69 68 68 66 65 64 68 70 70 71 70 70 68 68 68 70 70 72 71 70 70 67 70 69 70 66 65 65 65 64 64 64 67 63 62 64 63 59 60 62 60 60 60 64 64 66 67 65 65 64 64 64 63 63 60 60 61 63 64 65
69 68 68 68 68 67 65 67 68 69 69 70 70 70 69 70 70 70 70 69 71 70 69 68 68 68 67 66 63 63 64 65 63 62 64 62 62 63 63 60 59 59 59 60 61 63 63 66 65 64 63 64 63 64 62 60 61 62 63 63 65 65
68 68 69 68 67 66 66 69 69 68 69 68 69 68 68 70 69 69 70 70 69 69 67 67 67 67 65 65 64 64 64 64 64 64 65 62 64 62 60 59 60 60 60 60 60 61 62 66 66 62 63 61 62 61 63 61 62 63 63 63 65 66
68 68 67 66 67 66 70 70 70 69 69 69 69 68 68 69 68 68 69 69 70 68 67 67 67 65 65 65 64 64 64 62 63 64 64 64 63 62 61 62 61 60 58 58 58 59 60 63 64 64 62 62 62 62 62 61 63 64 64 64 64 66
68 68 69 70 67 67 69 70 69 68 69 69 69 69 68 68 67 69 67 68 68 68 67 67 66 65 64 64 64 64 63 62 63 63 65 65 65 64 63 62 61 60 60 58 58 59 59 61 65 64 63 62 62 62 62 64 64 63 64 64 63 65
68 66 67 67 69 68 68 69 69 68 68 68 69 69 69 67 68 67 68 68 68 69 68 66 66 64 63 64 64 65 65 64 63 63 65 64 65 65 62 61 61 61 57 58 57 58 60 61 61 62 61 62 64 64 64 63 63 62 64 65 64 66
68 68 67 67 69 68 68 68 67 68 68 68 68 68 68 67 67 67 67 68 68 69 68 67 65 64 64 64 65 66 66 65 63 64 65 65 66 65 64 63 64 61 61 59 59 59 59 60 61 60 63 60 65 65 63 65 63 62 62 64 64 64
67 69 68 67 67 66 67 67 67 68 68 68 69 67 66 67 67 67 69 69 69 69 68 67 66 66 66 66 66 66 66 66 64 64 65 65 65 65 64 63 64 64 65 63 62 62 63 61 61 59 61 61 64 65 63 64 63 63 62 64 66 64
67 68 67 67 67 66 67 67 67 68 67 68 68 67 66 67 68 68 69 69 69 69 69 68 68 67 64 65 66 67 65 66 65 64 64 65 65 66 65 64 64 64 64 65 64 65 61 64 62 62 62 64 64 63 64 64 64 64 63 61 64 64
67 68 67 67 67 65 66 67 67 67 67 67 66 66 66 67 68 67 68 68 68 68 68 68 67 67 65 66 67 67 66 65 65 66 65 65 64 64 64 64 62 63 63 63 64 64 63 62 61 63 65 65 65 65 64 61 62 63 64 63 63 65
67 67 67 67 66 66 67 66 66 66 67 67 66 66 65 67 67 67 67 66 68 68 68 68 68 68 66 66 66 66 66 64 66 66 65 65 64 65 64 63 61 63 63 63 63 62 61 64 65 65 66 66 65 65 65 66 65 63 62 65 65 63
67 67 67 66 67 67 67 67 66 66 67 66 65 65 65 66 66 66 66 66 68 68 68 68 68 68 67 66 65 65 65 67 67 66 65 65 65 64 64 63 63 64 62 62 63 63 64 64 64 65 66 66 66 66 65 65 65 65 64 65 64 65
66 66 66 66 65 66 67 67 67 67 66 66 65 64 64 66 66 66 66 65 67 68 68 68 68 68 68 66 64 66 66 67 67 66 65 65 64 63 64 63 64 63 63 61 63 63 64 64 64 65 65 66 65 65 64 65 63 64 65 65 65 66
66 66 65 65 65 66 67 67 67 66 67 65 65 65 65 65 66 66 66 65 66 67 68 68 68 67 68 66 66 66 67 68 67 67 66 65 64 64 64 64 63 64 63 63 62 62 63 63 64 64 64 65 65 65 64 64 64 64 63 63 65 68
66 66 65 65 65 66 68 67 67 67 66 66 66 66 66 65 65 67 66 67 66 67 67 68 68 68 68 66 66 67 68 68 68 67 67 65 65 66 66 66 65 64 65 64 62 64 63 63 63 63 63 64 64 64 64 64 64 63 63 65 66 65
65 65 65 65 64 64 65 65 64 64 66 64 65 65 66 64 66 65 66 67 66 67 66 67 67 68 68 67 66 67 68 68 67 66 66 65 64 64 65 65 65 63 64 63 63 64 64 63 63 63 63 64 63 64 64 63 63 63 64 66 67 68
64 64 63 63 63 63 63 64 64 63 63 65 64 66 65 65 65 64 66 65 66 66 67 67 67 68 68 67 67 67 67 66 65 64 65 65 64 64 65 65 64 64 63 63 63 64 64 63 62 61 63 63 63 64 64 64 64 64 64 67 68 66
64 64 63 63 62 62 63 62 64 63 65 65 63 63 64 65 66 66 67 67 66 66 67 67 67 68 68 67 67 66 67 66 65 64 64 64 64 64 65 64 64 63 64 62 63 63 63 62 60 61 59 60 61 62 64 63 63 63 63 64 65 66
64 64 63 63 63 62 64 66 65 64 63 62 63 65 63 64 66 65 67 67 67 68 66 66 65 64 65 64 64 64 64 66 66 64 64 63 63 64 66 65 64 63 62 62 62 64 64 63 58 60 60 58 57 57 61 61 62 62 62 62 63 64
65 64 64 64 63 65 66 67 66 65 65 64 64 66 67 67 66 66 66 67 67 67 67 64 62 62 63 64 65 64 66 66 65 66 64 63 64 64 66 65 64 64 63 61 60 61 65 64 61 59 56 55 57 56 54 56 59 61 62 62 62 62
65 64 64 65 65 66 66 67 66 65 66 66 66 65 65 65 65 66 65 66 67 67 65 64 63 63 62 64 65 67 66 66 65 66 65 63 63 63 64 64 64 64 63 61 60 62 63 64 63 65 62 56 55 55 55 57 58 59 63 60 60 59
65 65 64 65 66 66 65 64 65 63 63 63 63 64 63 64 65 65 64 67 66 65 65 65 64 64 63 63 64 65 65 65 67 66 64 64 62 61 64 63 64 64 63 64 62 61 60 63 64 64 65 63 63 57 57 57 56 54 60 61 60 60
65 65 65 65 65 66 64 65 65 62 61 61 61 62 62 63 64 63 65 66 64 66 63 64 64 63 63 63 64 64 64 63 62 62 63 63 62 61 60 61 62 62 61 62 63 61 62 61 63 64 63 64 64 61 64 57 59 58 55 58 59 61
65 65 65 65 65 65 65 65 65 64 61 62 61 61 63 64 64 64 64 63 63 64 63 63 63 62 63 63 63 63 63 63 62 61 61 61 61 61 61 61 64 64 63 62 63 60 60 61 59 60 63 62 63 62 61 61 61 55 54 55 56 59
66 65 65 65 65 65 65 64 64 61 62 62 62 62 62 63 63 64 64 63 62 61 62 63 62 63 63 63 63 63 63 63 63 62 61 60 61 61 63 64 64 64 64 63 63 61 61 60 60 59 62 62 60 58 59 59 58 59 53 56 54 57
65 65 65 65 65 65 65 64 64 63 62 61 61 61 62 62 62 62 62 63 62 61 60 60 61 61 61 61 62 63 62 62 63 62 61 61 62 63 64 64 65 65 64 64 63 62 61 60 60 61 60 60 58 58 58 58 58 60 56 55 53 54
65 64 65 65 65 65 65 65 65 63 63 62 62 61 61 61 61 61 61 61 61 61 61 60 62 62 62 60 62 62 62 62 63 63 61 62 63 62 64 65 65 65 64 64 62 62 61 62 61 61 61 59 58 58 59 56 60 59 58 55 54 55
65 65 65 65 65 65 66 65 65 64 63 63 63 61 61 61 61 60 60 60 59 60 61 62 62 61 62 62 62 62 62 62 61 63 62 62 62 64 65 64 64 64 63 63 63 62 62 61 62 61 62 60 62 63 61 59 59 61 59 60 56 54
64 64 64 64 65 65 65 66 65 64 63 63 62 62 61 61 60 59 59 59 59 58 59 59 59 60 62 62 61 62 62 60 60 62 61 60 62 62 64 64 64 64 63 62 62 62 61 62 62 60 59 61 64 63 61 60 61 61 62 59 59 52
64 64 64 64 65 64 66 66 66 64 63 62 62 62 60 59 60 59 59 59 59 58 58 59 59 60 60 60 60 60 61 61 61 62 62 61 60 61 64 64 63 63 63 62 62 63 62 63 63 62 62 60 61 63 61 61 60 61 60 59 56 53
64 64 63 64 63 64 64 65 63 62 62 62 61 59 59 60 61 60 59 59 59 58 57 58 57 59 59 60 60 61 60 61 61 62 61 60 60 61 61 60 62 63 62 63 63 63 62 62 62 61 62 61 61 60 60 59 60 60 60 61 60 55
63 63 63 63 64 64 64 64 64 64 64 63 62 60 59 61 61 61 60 59 60 59 58 57 59 60 60 60 59 60 60 60 60 60 60 59 59 58 61 62 63 64 63 61 64 63 63 64 64 63 63 62 62 62 61 60 59 58 60 58 57 55
62 61 61 60 61 62 63 63 64 65 65 65 63 62 61 62 61 61 60 60 59 59 59 59 59 60 60 59 59 60 59 59 60 59 59 59 58 58 60 63 63 64 64 63 64 62 64 63 64 64 62 62 61 60 61 62 60 59 59 59 58 56